Big Bear Station Historical Data
Daily Summary for July 4, 2017 Units:  English    Metric   Both
« Previous Day
Next Day »
Daily Weekly Monthly Yearly Custom
  High: Low: Average:
Temperature: 88.3 °F 50.7 °F 68.7 °F
Dew Point: 45.2 °F 25.6 °F 37.8 °F
Humidity: 64 % 18 % 36 %
Wind Speed: 6.8 mph 0.0 mph 2 mph
Wind Gust: -999.0 mph - -
Wind:- - WNW
Pressure: 30.35 in 30.29 in -
Precipitation: 0.00 in    
Historical Graphs
 
 
Tabular Data for July 4, 2017
Time Temperature Dew Point Pressure Wind Wind Speed Wind Gust Humidity Rainfall Rate (Hourly)
00:13 54.1 °F 25.6 °F 30.33 in Calm   -999.0 mph 33 % 0 in
00:29 54.3 °F 28.6 °F 30.33 in South 2.2 mph -999.0 mph 37 % 0 in
00:44 54.0 °F 31.4 °F 30.33 in Calm   -999.0 mph 42 % 0 in
00:59 53.8 °F 34.0 °F 30.32 in Calm   -999.0 mph 47 % 0 in
01:14 54.0 °F 33.1 °F 30.32 in South 1.7 mph -999.0 mph 45 % 0 in
01:29 53.2 °F 33.5 °F 30.32 in Calm   -999.0 mph 47 % 0 in
01:45 53.2 °F 35.0 °F 30.32 in Calm   -999.0 mph 50 % 0 in
02:00 53.1 °F 35.9 °F 30.32 in Calm   -999.0 mph 52 % 0 in
02:15 53.2 °F 37.0 °F 30.32 in South 1.7 mph -999.0 mph 54 % 0 in
02:31 53.1 °F 33.9 °F 30.31 in Calm   -999.0 mph 48 % 0 in
02:46 53.1 °F 35.4 °F 30.31 in Calm   -999.0 mph 51 % 0 in
03:01 53.1 °F 35.4 °F 30.31 in Calm   -999.0 mph 51 % 0 in
03:16 52.3 °F 35.2 °F 30.31 in Calm   -999.0 mph 52 % 0 in
03:31 52.3 °F 36.6 °F 30.31 in Calm   -999.0 mph 55 % 0 in
03:47 52.3 °F 38.4 °F 30.31 in Calm   -999.0 mph 59 % 0 in
04:02 52.0 °F 39.0 °F 30.30 in Calm   -999.0 mph 61 % 0 in
04:17 51.6 °F 38.6 °F 30.31 in Calm   -999.0 mph 61 % 0 in
04:32 51.8 °F 37.9 °F 30.31 in Calm   -999.0 mph 59 % 0 in
04:47 51.3 °F 37.5 °F 30.31 in Calm   -999.0 mph 59 % 0 in
05:03 51.3 °F 37.9 °F 30.31 in Calm   -999.0 mph 60 % 0 in
05:18 51.1 °F 37.3 °F 30.31 in Calm   -999.0 mph 59 % 0 in
05:34 50.9 °F 37.5 °F 30.31 in Calm   -999.0 mph 60 % 0 in
05:49 51.1 °F 36.8 °F 30.31 in Calm   -999.0 mph 58 % 0 in
06:04 50.7 °F 38.6 °F 30.32 in Calm   -999.0 mph 63 % 0 in
06:19 51.1 °F 38.9 °F 30.32 in Calm   -999.0 mph 63 % 0 in
06:34 51.3 °F 37.9 °F 30.32 in Calm   -999.0 mph 60 % 0 in
06:50 51.4 °F 39.2 °F 30.33 in Calm   -999.0 mph 63 % 0 in
07:05 51.6 °F 39.8 °F 30.33 in Calm   -999.0 mph 64 % 0 in
07:20 53.4 °F 41.5 °F 30.33 in Calm   -999.0 mph 64 % 0 in
07:35 54.1 °F 41.8 °F 30.33 in Calm   -999.0 mph 63 % 0 in
07:51 55.4 °F 41.7 °F 30.33 in Calm   -999.0 mph 60 % 0 in
08:06 58.1 °F 36.3 °F 30.33 in Calm   -999.0 mph 44 % 0 in
08:21 63.7 °F 30.8 °F 30.34 in Calm   -999.0 mph 29 % 0 in
08:36 65.7 °F 31.7 °F 30.34 in SW 2.7 mph -999.0 mph 28 % 0 in
08:51 69.1 °F 31.8 °F 30.34 in WNW 4.2 mph -999.0 mph 25 % 0 in
09:07 70.9 °F 33.3 °F 30.35 in NW 3.2 mph -999.0 mph 25 % 0 in
09:22 72.3 °F 35.5 °F 30.35 in Calm   -999.0 mph 26 % 0 in
09:37 73.4 °F 35.4 °F 30.35 in NNW 3.2 mph -999.0 mph 25 % 0 in
09:52 74.7 °F 36.5 °F 30.35 in North 3.2 mph -999.0 mph 25 % 0 in
10:08 75.4 °F 37.1 °F 30.35 in NW 4.2 mph -999.0 mph 25 % 0 in
10:23 75.9 °F 39.5 °F 30.35 in NNW 2.7 mph -999.0 mph 27 % 0 in
10:38 76.8 °F 38.3 °F 30.35 in NNW 3.2 mph -999.0 mph 25 % 0 in
10:53 77.2 °F 39.7 °F 30.35 in NW 4.2 mph -999.0 mph 26 % 0 in
11:09 78.1 °F 41.4 °F 30.35 in NNW 4.2 mph -999.0 mph 27 % 0 in
11:24 79.7 °F 41.8 °F 30.35 in NW 5.3 mph -999.0 mph 26 % 0 in
11:39 81.0 °F 39.7 °F 30.35 in NW 5.3 mph -999.0 mph 23 % 0 in
11:54 82.0 °F 42.7 °F 30.35 in North 4.2 mph -999.0 mph 25 % 0 in
12:10 83.1 °F 40.3 °F 30.34 in NW 5.3 mph -999.0 mph 22 % 0 in
12:26 84.0 °F 38.6 °F 30.34 in North 4.7 mph -999.0 mph 20 % 0 in
12:42 85.5 °F 41.1 °F 30.34 in NNW 4.7 mph -999.0 mph 21 % 0 in
12:57 85.6 °F 41.2 °F 30.34 in WNW 3.7 mph -999.0 mph 21 % 0 in
13:12 86.2 °F 40.4 °F 30.34 in South 4.2 mph -999.0 mph 20 % 0 in
13:28 87.4 °F 42.7 °F 30.34 in WSW 5.8 mph -999.0 mph 21 % 0 in
13:43 88.3 °F 39.4 °F 30.33 in NW 4.2 mph -999.0 mph 18 % 0 in
13:58 86.9 °F 39.7 °F 30.33 in NE 5.3 mph -999.0 mph 19 % 0 in
14:13 87.1 °F 41.2 °F 30.33 in NW 5.3 mph -999.0 mph 20 % 0 in
14:29 86.9 °F 41.0 °F 30.33 in NNW 5.3 mph -999.0 mph 20 % 0 in
14:44 87.1 °F 41.2 °F 30.32 in NW 6.8 mph -999.0 mph 20 % 0 in
14:59 87.1 °F 41.2 °F 30.32 in NNW 3.7 mph -999.0 mph 20 % 0 in
15:15 85.6 °F 38.6 °F 30.32 in North 5.3 mph -999.0 mph 19 % 0 in
15:30 86.0 °F 41.5 °F 30.31 in NW 5.8 mph -999.0 mph 21 % 0 in
15:46 86.0 °F 41.5 °F 30.31 in NE 5.8 mph -999.0 mph 21 % 0 in
16:01 84.9 °F 40.6 °F 30.31 in West 4.7 mph -999.0 mph 21 % 0 in
16:16 84.6 °F 40.4 °F 30.31 in NNW 5.3 mph -999.0 mph 21 % 0 in
16:32 84.7 °F 37.9 °F 30.31 in NW 4.7 mph -999.0 mph 19 % 0 in
16:47 86.7 °F 40.8 °F 30.30 in NW 5.8 mph -999.0 mph 20 % 0 in
17:03 87.4 °F 41.4 °F 30.30 in WNW 4.7 mph -999.0 mph 20 % 0 in
17:18 87.3 °F 40.0 °F 30.30 in WNW 4.7 mph -999.0 mph 19 % 0 in
17:33 86.2 °F 45.2 °F 30.30 in NW 4.7 mph -999.0 mph 24 % 0 in
17:48 84.9 °F 39.4 °F 30.29 in NNW 2.2 mph -999.0 mph 20 % 0 in
18:03 85.5 °F 39.9 °F 30.29 in NW 4.2 mph -999.0 mph 20 % 0 in
18:19 84.4 °F 39.0 °F 30.30 in WNW 3.7 mph -999.0 mph 20 % 0 in
18:34 84.2 °F 37.5 °F 30.29 in NNW 4.7 mph -999.0 mph 19 % 0 in
18:49 83.7 °F 43.1 °F 30.30 in NW 3.7 mph -999.0 mph 24 % 0 in
19:04 81.7 °F 38.0 °F 30.30 in West 1.1 mph -999.0 mph 21 % 0 in
19:20 79.3 °F 36.0 °F 30.30 in Calm   -999.0 mph 21 % 0 in
19:35 75.9 °F 36.5 °F 30.30 in Calm   -999.0 mph 24 % 0 in
19:50 73.4 °F 35.4 °F 30.30 in Calm   -999.0 mph 25 % 0 in
20:05 71.4 °F 35.7 °F 30.30 in Calm   -999.0 mph 27 % 0 in
20:20 69.6 °F 35.9 °F 30.30 in Calm   -999.0 mph 29 % 0 in
20:36 68.5 °F 35.8 °F 30.30 in Calm   -999.0 mph 30 % 0 in
21:06 66.9 °F 36.9 °F 30.30 in Calm   -999.0 mph 33 % 0 in
21:21 66.0 °F 36.8 °F 30.30 in Calm   -999.0 mph 34 % 0 in
21:36 65.1 °F 36.8 °F 30.31 in Calm   -999.0 mph 35 % 0 in
21:52 64.0 °F 36.5 °F 30.31 in Calm   -999.0 mph 36 % 0 in
22:07 63.1 °F 36.4 °F 30.32 in Calm   -999.0 mph 37 % 0 in
22:22 62.6 °F 37.9 °F 30.31 in Calm   -999.0 mph 40 % 0 in
22:37 62.2 °F 39.4 °F 30.31 in Calm   -999.0 mph 43 % 0 in
22:52 61.9 °F 38.6 °F 30.31 in Calm   -999.0 mph 42 % 0 in
23:08 61.3 °F 37.4 °F 30.31 in Calm   -999.0 mph 41 % 0 in
23:23 60.6 °F 36.8 °F 30.32 in Calm   -999.0 mph 41 % 0 in
23:38 59.9 °F 35.5 °F 30.32 in Calm   -999.0 mph 40 % 0 in
23:53 59.4 °F 36.9 °F 30.31 in Calm   -999.0 mph 43 % 0 in
Big Bear CA Weather
Compliments of Weather Underground - 1.5 mb